When you browse on this site, cookies collect data to enhance your experience and personalize the content and advertising you see.
Visit our Privacy Policy to learn more. By continuing to use the site, you agree to this use of cookies and data.
  • In Czech Republic
  • List of Countries
  • For 7 days
  • Water Temperature
  • Satellite Maps
  • Weather Map
  • Weather Widgets
  • user-avatar
    Login

    Hourly Weather Fuzhou

    Today, 21 March, Thursday

    Time Temperature Precipitation Wind Pressure Humidity
    00:00 +23°C° 0 mm 1 mps 757 mmHg 92%
    01:00 +23°C° 0 mm 1 mps 757 mmHg 94%
    02:00 +23°C° 0 mm 1 mps 757 mmHg 95%
    03:00 +22°C° 0 mm 1 mps 757 mmHg 95%
    04:00 +22°C° 0 mm 1 mps 757 mmHg 95%
    05:00 +22°C° 0 mm 1 mps 757 mmHg 95%
    06:00 +23°C° 0 mm 1 mps 757 mmHg 91%
    07:00 +24°C° 0 mm 1 mps 757 mmHg 87%
    08:00 +25°C° 0 mm 1 mps 757 mmHg 82%
    09:00 +28°C° 0 mm 1 mps 757 mmHg 74%
    10:00 +30°C° 0 mm 1 mps 757 mmHg 65%
    11:00 +32°C° 0 mm 2 mps 757 mmHg 57%
    12:00 +34°C° 0 mm 2 mps 756 mmHg 53%
    13:00 +35°C° 0 mm 2 mps 756 mmHg 50%
    14:00 +35°C° 0 mm 3 mps 755 mmHg 47%
    15:00 +35°C° 0 mm 3 mps 755 mmHg 50%
    16:00 +34°C° 0 mm 2 mps 755 mmHg 54%
    17:00 +32°C° 0 mm 2 mps 755 mmHg 58%
    18:00 +29°C° 0.5 mm 2 mps 755 mmHg 68%
    19:00 +27°C° 0.5 mm 2 mps 756 mmHg 78%
    20:00 +25°C° 0.5 mm 2 mps 756 mmHg 87%
    21:00 +24°C° 0.2 mm 2 mps 757 mmHg 88%
    22:00 +23°C° 0.2 mm 2 mps 758 mmHg 89%
    23:00 +21°C° 0.2 mm 2 mps 758 mmHg 89%

    Tomorrow, 22 March, Friday

    Time Temperature Precipitation Wind Pressure Humidity
    00:00 +20°C° 0 mm 2 mps 758 mmHg 90%
    01:00 +19°C° 0 mm 2 mps 759 mmHg 90%
    02:00 +19°C° 0 mm 2 mps 759 mmHg 90%
    03:00 +19°C° 0.1 mm 2 mps 759 mmHg 90%
    04:00 +18°C° 0.1 mm 2 mps 759 mmHg 90%
    05:00 +18°C° 0.1 mm 2 mps 759 mmHg 90%
    06:00 +18°C° 0.1 mm 2 mps 759 mmHg 90%
    07:00 +18°C° 0.1 mm 2 mps 760 mmHg 90%
    08:00 +18°C° 0.1 mm 2 mps 760 mmHg 90%
    09:00 +18°C° 0.1 mm 2 mps 761 mmHg 89%
    10:00 +18°C° 0.1 mm 2 mps 761 mmHg 89%
    11:00 +18°C° 0.1 mm 2 mps 761 mmHg 88%
    12:00 +18°C° 0.1 mm 2 mps 761 mmHg 87%
    13:00 +18°C° 0.1 mm 2 mps 760 mmHg 86%
    14:00 +18°C° 0.1 mm 2 mps 760 mmHg 84%
    15:00 +17°C° 0 mm 2 mps 760 mmHg 85%
    16:00 +17°C° 0 mm 2 mps 760 mmHg 86%
    17:00 +17°C° 0 mm 2 mps 760 mmHg 87%
    18:00 +16°C° 0.1 mm 2 mps 760 mmHg 87%
    19:00 +16°C° 0.1 mm 2 mps 761 mmHg 88%
    20:00 +16°C° 0.1 mm 2 mps 762 mmHg 89%
    21:00 +15°C° 0.2 mm 2 mps 762 mmHg 89%
    22:00 +15°C° 0.2 mm 2 mps 763 mmHg 89%
    23:00 +15°C° 0.2 mm 2 mps 763 mmHg 89%

    Day after tomorrow, 23 March, Saturday

    Time Temperature Precipitation Wind Pressure Humidity
    00:00 +15°C° 0.4 mm 2 mps 763 mmHg 90%
    01:00 +15°C° 0.4 mm 2 mps 763 mmHg 90%
    02:00 +14°C° 0.4 mm 2 mps 763 mmHg 90%
    03:00 +14°C° 0.8 mm 2 mps 763 mmHg 90%
    04:00 +14°C° 0.8 mm 2 mps 763 mmHg 91%
    05:00 +14°C° 0.8 mm 2 mps 763 mmHg 91%
    06:00 +14°C° 0.2 mm 2 mps 764 mmHg 90%
    07:00 +14°C° 0.2 mm 2 mps 765 mmHg 90%
    08:00 +14°C° 0.2 mm 2 mps 765 mmHg 89%
    09:00 +14°C° 0.1 mm 2 mps 765 mmHg 87%
    10:00 +14°C° 0.1 mm 2 mps 766 mmHg 84%
    11:00 +14°C° 0.1 mm 2 mps 766 mmHg 82%
    12:00 +14°C° 0 mm 3 mps 766 mmHg 80%
    13:00 +14°C° 0 mm 3 mps 765 mmHg 79%
    14:00 +14°C° 0 mm 3 mps 765 mmHg 77%
    15:00 +14°C° 0 mm 3 mps 765 mmHg 78%
    16:00 +14°C° 0 mm 3 mps 765 mmHg 78%
    17:00 +13°C° 0 mm 3 mps 765 mmHg 79%
    18:00 +14°C° 0 mm 2 mps 765 mmHg 78%
    19:00 +14°C° 0 mm 2 mps 766 mmHg 78%
    20:00 +14°C° 0 mm 2 mps 766 mmHg 77%
    21:00 +13°C° 0 mm 2 mps 766 mmHg 77%
    22:00 +13°C° 0 mm 2 mps 767 mmHg 77%
    23:00 +13°C° 0 mm 2 mps 767 mmHg 77%

    24 March, Sunday

    Time Temperature Precipitation Wind Pressure Humidity
    00:00 +13°C° 0 mm 2 mps 766 mmHg 77%
    01:00 +13°C° 0 mm 2 mps 766 mmHg 77%
    02:00 +13°C° 0 mm 2 mps 766 mmHg 76%
    03:00 +13°C° 0 mm 2 mps 765 mmHg 77%
    04:00 +13°C° 0 mm 1 mps 765 mmHg 78%
    05:00 +12°C° 0 mm 1 mps 765 mmHg 79%
    06:00 +13°C° 0.1 mm 1 mps 766 mmHg 77%
    07:00 +13°C° 0.1 mm 1 mps 766 mmHg 76%
    08:00 +14°C° 0.1 mm 2 mps 766 mmHg 75%
    09:00 +14°C° 0.1 mm 2 mps 766 mmHg 75%
    10:00 +14°C° 0.1 mm 2 mps 766 mmHg 75%
    11:00 +15°C° 0.1 mm 2 mps 766 mmHg 74%
    12:00 +16°C° 0 mm 2 mps 765 mmHg 72%
    13:00 +17°C° 0 mm 2 mps 764 mmHg 69%
    14:00 +18°C° 0 mm 2 mps 763 mmHg 67%
    15:00 +17°C° 0 mm 2 mps 763 mmHg 69%
    16:00 +17°C° 0 mm 2 mps 763 mmHg 71%
    17:00 +17°C° 0 mm 2 mps 762 mmHg 74%
    18:00 +16°C° 0 mm 1 mps 763 mmHg 77%
    19:00 +15°C° 0 mm 1 mps 763 mmHg 81%
    20:00 +15°C° 0 mm 1 mps 763 mmHg 84%
    21:00 +15°C° 0 mm 1 mps 763 mmHg 85%
    22:00 +15°C° 0 mm 1 mps 763 mmHg 85%
    23:00 +14°C° 0 mm 1 mps 763 mmHg 86%

    25 March, Monday

    Time Temperature Precipitation Wind Pressure Humidity
    00:00 +14°C° 0 mm 1 mps 763 mmHg 87%
    01:00 +14°C° 0 mm 1 mps 762 mmHg 88%
    02:00 +13°C° 0 mm 0 mps 761 mmHg 89%
    03:00 +13°C° 0.1 mm 0 mps 761 mmHg 88%
    04:00 +13°C° 0.1 mm 0 mps 761 mmHg 88%
    05:00 +14°C° 0.1 mm 0 mps 760 mmHg 88%
    06:00 +15°C° 0 mm 0 mps 761 mmHg 85%
    07:00 +16°C° 0 mm 0 mps 761 mmHg 81%
    08:00 +17°C° 0 mm 0 mps 761 mmHg 78%
    09:00 +20°C° 0 mm 1 mps 761 mmHg 74%
    10:00 +22°C° 0 mm 1 mps 761 mmHg 71%
    11:00 +24°C° 0 mm 2 mps 761 mmHg 68%
    12:00 +23°C° 2.3 mm 1 mps 761 mmHg 75%
    13:00 +22°C° 2.3 mm 1 mps 761 mmHg 83%
    14:00 +19°C° 2.3 mm 0 mps 760 mmHg 90%
    15:00 +19°C° 0.2 mm 0 mps 760 mmHg 89%
    16:00 +19°C° 0.2 mm 0 mps 760 mmHg 89%
    17:00 +19°C° 0.2 mm 0 mps 761 mmHg 88%
    18:00 +19°C° 0 mm 0 mps 761 mmHg 89%
    19:00 +20°C° 0 mm 1 mps 762 mmHg 90%
    20:00 +19°C° 0 mm 1 mps 762 mmHg 92%
    21:00 +19°C° 0 mm 1 mps 763 mmHg 92%
    22:00 +18°C° 0 mm 1 mps 763 mmHg 93%
    23:00 +18°C° 0 mm 1 mps 763 mmHg 94%

    26 March, Tuesday

    Time Temperature Precipitation Wind Pressure Humidity
    00:00 +18°C° 0 mm 1 mps 763 mmHg 94%
    01:00 +18°C° 0 mm 1 mps 763 mmHg 94%
    02:00 +16°C° 0 mm 1 mps 763 mmHg 95%
    03:00 +16°C° 0 mm 1 mps 763 mmHg 95%
    04:00 +16°C° 0 mm 1 mps 763 mmHg 95%
    05:00 +16°C° 0 mm 1 mps 763 mmHg 95%
    06:00 +18°C° 0 mm 1 mps 763 mmHg 92%
    07:00 +19°C° 0 mm 1 mps 764 mmHg 90%
    08:00 +20°C° 0 mm 1 mps 764 mmHg 87%
    09:00 +20°C° 0.1 mm 1 mps 764 mmHg 86%
    10:00 +20°C° 0.1 mm 1 mps 764 mmHg 84%
    11:00 +20°C° 0.1 mm 2 mps 764 mmHg 82%
    12:00 +20°C° 0.1 mm 2 mps 764 mmHg 81%
    13:00 +20°C° 0.1 mm 2 mps 763 mmHg 80%
    14:00 +20°C° 0.1 mm 2 mps 763 mmHg 79%
    15:00 +20°C° 0 mm 2 mps 763 mmHg 79%
    16:00 +19°C° 0 mm 2 mps 763 mmHg 79%
    17:00 +19°C° 0 mm 2 mps 763 mmHg 79%
    18:00 +18°C° 0 mm 2 mps 763 mmHg 82%
    19:00 +17°C° 0 mm 2 mps 764 mmHg 84%
    20:00 +18°C° 0 mm 1 mps 764 mmHg 86%
    21:00 +16°C° 0 mm 1 mps 764 mmHg 87%
    22:00 +16°C° 0 mm 1 mps 764 mmHg 88%
    23:00 +15°C° 0 mm 1 mps 764 mmHg 89%
    Show more